WetterOnline ( http://www.wetteronline.de )

Wetter aktuell PLZ Bereich 55569

Aktuelles Wetter: Geisenheim (110m)

6-stündlich | Neueste Meldungen
Ortszeit Temperatur Wetter
Di, 20.02. 13:00 3.9° C wolkig
Di, 20.02. 7:00 -0.9° C bedeckt
Di, 20.02. 1:00 -1.1° C wolkenlos
Mo, 19.02. 19:00 1.6° C bewölkt
Mo, 19.02. 13:00 2.8° C wolkig
So, 18.02. 1:00 -1.2° C wolkenlos
Sa, 17.02. 19:00 3.0° C bedeckt
Sa, 17.02. 13:00 3.2° C bewölkt
Ortszeit Temperatur Wetter
Di, 20.02. 18:30 3.0° C wolkig
Di, 20.02. 18:10 3.3° C wolkig
Di, 20.02. 18:00 3.7° C bewölkt
Di, 20.02. 17:50 3.7° C bewölkt
Di, 20.02. 17:40 4.1° C wolkig
Di, 20.02. 17:30 4.4° C wolkig
Di, 20.02. 17:00 4.8° C leicht bewölkt
Di, 20.02. 16:30 4.8° C leicht bewölkt
Di, 20.02. 16:00 4.9° C leicht bewölkt
Di, 20.02. 15:30 5.3° C leicht bewölkt
Ortszeit Relative Feuchte Sichtweite
Di, 20.02. 13:00 62% 10 km
Di, 20.02. 7:00 80% 11 km
Di, 20.02. 1:00 84% 7 km
Mo, 19.02. 19:00 77% 8 km
Mo, 19.02. 13:00 70% 10 km
So, 18.02. 1:00 84% 12 km
Sa, 17.02. 19:00 69% 19 km
Sa, 17.02. 13:00 72% 18 km
Ortszeit Relative Feuchte Sichtweite
Di, 20.02. 18:30 64% 8 km
Di, 20.02. 18:10 62% -
Di, 20.02. 18:00 61% 10 km
Di, 20.02. 17:50 61% -
Di, 20.02. 17:40 56% -
Di, 20.02. 17:30 54% 13 km
Di, 20.02. 17:00 52% 13 km
Di, 20.02. 16:30 52% 14 km
Di, 20.02. 16:00 54% 14 km
Di, 20.02. 15:30 54% 12 km
Ortszeit Niederschlagsmenge Niederschlagsart
Di, 20.02. 13:00 0.0 l/m2 in 6 Std. -
Di, 20.02. 7:00 0.0 l/m2 in 12 Std. -
Di, 20.02. 1:00 0.0 l/m2 in 6 Std. -
Mo, 19.02. 19:00 0.0 l/m2 in 3 Std. -
Mo, 19.02. 13:00 0.0 l/m2 in 3 Std. -
So, 18.02. 1:00 0.0 l/m2 in 6 Std. -
Sa, 17.02. 19:00 0.0 l/m2 in 12 Std. -
Sa, 17.02. 13:00 0.0 l/m2 in 6 Std. -
Ortszeit Niederschlagsmenge Niederschlagsart
Di, 20.02. 18:30 0.0 l/m2 in 1 Std. -
Di, 20.02. 18:10 keine Meldung -
Di, 20.02. 18:00 0.0 l/m2 in 1 Std. -
Di, 20.02. 17:50 keine Meldung -
Di, 20.02. 17:40 keine Meldung -
Di, 20.02. 17:30 0.0 l/m2 in 1 Std. -
Di, 20.02. 17:00 0.0 l/m2 in 1 Std. -
Di, 20.02. 16:30 0.0 l/m2 in 1 Std. -
Di, 20.02. 16:00 0.0 l/m2 in 1 Std. -
Di, 20.02. 15:30 0.0 l/m2 in 1 Std. -
Ortszeit Stärke Spitze Richtung
km/h Bft. km/h Grad Sektor
Di, 20.02. 13:00 6 1 15 130° SO
Di, 20.02. 7:00 6 1 11 320° NW
Di, 20.02. 1:00 7 2 11 10° N
Mo, 19.02. 19:00 4 1 11 220° SW
Mo, 19.02. 13:00 4 1 14 110° O
So, 18.02. 1:00 6 1 19 320° NW
Sa, 17.02. 19:00 6 1 24 160° S
Sa, 17.02. 13:00 11 2 39 80° O
Ortszeit Stärke Spitze Richtung
km/h Bft. km/h Grad Sektor
Di, 20.02. 18:30 7 2 14 80° O
Di, 20.02. 18:10 7 2 - 90° O
Di, 20.02. 18:00 7 2 20 100° O
Di, 20.02. 17:50 7 2 - 100° O
Di, 20.02. 17:40 7 2 - 30° NO
Di, 20.02. 17:30 13 3 20 20° N
Di, 20.02. 17:00 9 2 20 40° NO
Di, 20.02. 16:30 11 2 22 20° N
Di, 20.02. 16:00 7 2 18 10° N
Di, 20.02. 15:30 7 2 18 130° SO
Ortszeit Untergrenze Bedeckung Gattung
total tief tief mittel hoch
Di, 20.02. 13:00 870 m 7/8 7/8 - - -
Di, 20.02. 7:00 960 m 8/8 8/8 - - -
Di, 20.02. 1:00 - 0/8 0/8 - - -
Mo, 19.02. 19:00 2700 m 8/8 7/8 - - -
Mo, 19.02. 13:00 630 m 8/8 1/8 - - -
So, 18.02. 1:00 - 0/8 0/8 - - -
Sa, 17.02. 19:00 3000 m 8/8 8/8 - - -
Sa, 17.02. 13:00 2400 m 7/8 7/8 - - -
Ortszeit Bedeckungsgrad in Achtel und Wolkenuntergrenze
Di, 20.02. 18:30 4(3600m) 6(4200m)
Di, 20.02. 18:10 2(1170m) 3(2100m) 7(4200m)
Di, 20.02. 18:00 7(1200m) 7(3900m) 9
Di, 20.02. 17:50 7(1200m) 7(3900m)
Di, 20.02. 17:40 5(1230m) 7(3900m)
Di, 20.02. 17:30 2(1200m) 7(3900m)
Di, 20.02. 17:00 2(1230m)
Di, 20.02. 16:30 3(1140m) 4(1350m) 9
Di, 20.02. 16:00 4(1170m)
Di, 20.02. 15:30 4(1170m)
Ortszeit Luftdruck NN (hPa) Tendenz (hPa in 3 Std.)
Di, 20.02. 13:00 1018 - 0,4
Di, 20.02. 7:00 1018 + 0,2
Di, 20.02. 1:00 1018 - 0,4
Mo, 19.02. 19:00 1019 - 0,7
Mo, 19.02. 13:00 1021 - 1,1
So, 18.02. 1:00 1027 + 1,5
Sa, 17.02. 19:00 1024 + 1,9
Sa, 17.02. 13:00 1022 - 0,2
Ortszeit Luftdruck NN (hPa) Tendenz (hPa in 3 Std.)
Di, 20.02. 18:30 1019 + 1,2
Di, 20.02. 18:10 1018 keine Meldung
Di, 20.02. 18:00 1018 + 0,8
Di, 20.02. 17:50 1018 keine Meldung
Di, 20.02. 17:40 1018 keine Meldung
Di, 20.02. 17:30 1018 + 0,3
Di, 20.02. 17:00 1017 0,0
Di, 20.02. 16:30 1017 - 0,3
Di, 20.02. 16:00 1017 - 0,4
Di, 20.02. 15:30 1017 - 0,5
Ortszeit Schneehöhe (cm)
Di, 20.02. 13:00 0
Di, 20.02. 7:00 0
Di, 20.02. 1:00 0
Mo, 19.02. 19:00 0
Mo, 19.02. 13:00 0
So, 18.02. 1:00 0
Sa, 17.02. 19:00 0
Sa, 17.02. 13:00 0
Ortszeit Schneehöhe (cm)
Di, 20.02. 18:30 0
Di, 20.02. 18:10 0
Di, 20.02. 18:00 0
Di, 20.02. 17:50 0
Di, 20.02. 17:40 0
Di, 20.02. 17:30 0
Di, 20.02. 17:00 0
Di, 20.02. 16:30 0
Di, 20.02. 16:00 0
Di, 20.02. 15:30 0
Link zu dieser Seite / Seite empfehlen

Das Wetter in ...